Regional Weather Roundup
Issued by NWS Binghamton, NY

Current Version | Previous Version | Text Only | Print | Product List | Glossary On
Versions: 1 2 3 4 5 6 7 8 9 10 11 12 13 14 15 16 17 18 19 20 21 22 23 24 25 26 27 28 29 30 31 32 33 34 35 36 37 38 39 40 41 42 43 44 45 46 47 48 49 50
000
ASUS41 KBGM 310110
RWRBGM
RWRBGM
BINGHAMTON REGIONAL WEATHER ROUNDUP
NATIONAL WEATHER SERVICE BINGHAMTON NY
900 PM EDT SAT AUG 30 2014

Note: "fair" indicates few or no clouds below 12,000 feet with no
significant weather and/or obstructions to visibility.

* = Station(s) that does not report precipitation, such as rain,
snow, etc, also no thunder or fog.

!NYZ009-015>018-022>025-036-037-044>046-055>057-062-310200
...CENTRAL NEW YORK...

CITY           SKY/WX    TMP DP  RH WIND       PRES   REMARKS
BINGHAMTON     CLOUDY    68  62  81 S9        30.13R
CORTLAND       CLOUDY    70  64  83 S8        30.10R
DANSVILLE      PTCLDY    76  67  73 SE8       30.02R
ELMIRA         CLOUDY    73  66  78 S6        30.08R
ITHACA         MOCLDY    70  65  84 S15       30.09R
HAMILTON       CLOUDY    72  63  73 S8G17     30.10R
MONTICELLO     CLOUDY    66  63  88 S3        30.20R
NORWICH        CLOUDY    70  63  78 S9G17     30.12R
PENN YAN       MOCLDY    73  65  75 S14G21    30.05R
ROME           PTCLDY    71  64  78 SE7       30.06R
SIDNEY         CLEAR     70  66  88 CALM      30.12R
SYRACUSE       MOCLDY    74  64  71 SE9       30.01R
$$

!PAZ038>040-043-044-047-048-072-310200
...NORTHEAST PENNSYLVANIA...

CITY           SKY/WX    TMP DP  RH WIND       PRES   REMARKS
HAZLETON       CLOUDY    70  61  73 SE7       30.21R
SCRANTON       CLOUDY    71  61  70 VRB3      30.14S
TOWANDA*       PTCLDY    73  66  78 S5        30.11R
$$
&&
KEY
WCI = WIND CHILL INDEX
VSB = VISIBILITY
HX  = HEAT INDEX
$$


USA.gov is the U.S. government's official web portal to all federal, state and local government web resources and services.